Location: Unspecified
(35.7250°N, 0.0000°E)
Time: 15:47:30
(UTC+00:00)

SR - Pass Details

Date: 23 June 2019
Orbit: 578 x 878 km, 66.7° (Epoch: 21 August)

Event Time Altitude Azimuth Distance (km) Brightness Sun altitude
Exits shadow 02:20:56 24° 133° (SE) 1,220 ? -22.3°
Maximum altitude 02:21:55 26° 110° (ESE) 1,147 ? -22.2°
Drops below altitude 10° 02:25:27 10° 53° (NE) 1,898 ? -21.8°
Sets 02:27:57 0° 40° (NE) 2,818 ? -21.5°
